Location: Geroldsau
(48.7259°N, 8.2466°E)
Time: 05:18:59
(UTC+00:00)

FENGYUN 1C DEB - Pass Details

Date: 07 February 2022
Orbit: 832 x 1169 km, 98.6° (Epoch: 18 May)

Event Time Altitude Azimuth Distance (km) Brightness Sun altitude
Rises 18:26:34 0° 6° (N) 3,603 ? -18.8°
Reaches altitude 10° 18:29:21 10° 353° (N) 2,707 ? -19.2°
Maximum altitude 18:34:07 25° 301° (WNW) 1,925 ? -20.0°
Drops below altitude 10° 18:39:10 10° 250° (WSW) 2,881 ? -20.8°
Sets 18:42:14 0° 238° (WSW) 3,885 ? -21.3°
